Precipitable_Water
1.47 1.49 1.50 1.47 1.49 1.42 1.38 1.35 1.37 1.37 1.40 1.44 1.45 1.44 1.45 1.43 1.39 1.33 1.25 1.25 1.22 1.16 1.11 1.08 1.07 1.04 1.03 1.00 0.98 0.99 1.08 1.14 1.15 1.14 1.13 1.13 1.12 1.10 1.06 1.01 1.00 0.99 0.95 0.87 0.83 0.83 0.82 0.81 0.79 0.76 0.74 0.74 0.70 0.75 0.75 0.73 0.75 0.75 0.82 0.82 0.83 0.78 0.76 0.71 0.68 0.66 0.61 0.55 0.55 0.56 0.54 0.55 0.55 0.53 0.52 0.51 0.51 0.51 0.50 0.49 0.50 0.51 0.53 0.54 0.55
1.43 1.50 1.45 1.40 1.40 1.38 1.35 1.33 1.29 1.31 1.33 1.36 1.44 1.41 1.38 1.36 1.34 1.30 1.22 1.17 1.16 1.18 1.12 1.09 1.07 1.04 1.01 1.01 1.01 1.02 1.06 1.12 1.14 1.12 1.12 1.13 1.13 1.10 1.06 1.07 1.04 1.04 1.04 0.97 0.88 0.86 0.85 0.81 0.77 0.75 0.75 0.71 0.69 0.71 0.73 0.73 0.73 0.73 0.77 0.82 0.86 0.83 0.80 0.76 0.69 0.67 0.65 0.60 0.56 0.55 0.56 0.56 0.56 0.54 0.53 0.53 0.52 0.51 0.49 0.49 0.47 0.48 0.49 0.50 0.51
1.39 1.37 1.37 1.38 1.37 1.33 1.28 1.31 1.28 1.26 1.28 1.31 1.39 1.39 1.35 1.33 1.31 1.29 1.26 1.21 1.13 1.15 1.12 1.11 1.12 1.07 1.02 0.99 1.00 1.02 1.02 1.07 1.12 1.13 1.12 1.15 1.15 1.13 1.11 1.08 1.06 1.07 1.06 1.04 0.99 0.91 0.88 0.86 0.85 0.82 0.77 0.69 0.66 0.67 0.68 0.72 0.72 0.69 0.73 0.83 0.81 0.84 0.81 0.77 0.72 0.68 0.67 0.64 0.61 0.58 0.57 0.56 0.55 0.57 0.56 0.56 0.55 0.54 0.51 0.48 0.48 0.50 0.51 0.51 0.52
1.38 1.33 1.31 1.37 1.31 1.26 1.26 1.26 1.25 1.28 1.31 1.33 1.31 1.32 1.32 1.32 1.31 1.33 1.33 1.30 1.27 1.22 1.19 1.16 1.14 1.11 1.09 1.05 1.02 1.02 1.00 1.03 1.01 1.13 1.16 1.15 1.15 1.16 1.16 1.13 1.12 1.12 1.10 1.10 1.06 1.01 0.95 0.90 0.90 0.87 0.85 0.80 0.74 0.69 0.66 0.67 0.70 0.68 0.72 0.77 0.75 0.80 0.82 0.80 0.75 0.71 0.69 0.67 0.65 0.62 0.59 0.59 0.60 0.58 0.58 0.59 0.57 0.55 0.55 0.54 0.52 0.50 0.51 0.51 0.51
1.31 1.31 1.26 1.27 1.28 1.25 1.26 1.25 1.25 1.26 1.25 1.27 1.29 1.32 1.33 1.30 1.29 1.32 1.33 1.31 1.27 1.26 1.24 1.20 1.19 1.20 1.19 1.17 1.16 1.13 1.10 1.04 1.04 1.08 1.13 1.13 1.11 1.12 1.14 1.14 1.15 1.15 1.14 1.15 1.15 1.14 1.07 0.98 0.93 0.92 0.88 0.85 0.84 0.80 0.73 0.70 0.71 0.68 0.66 0.72 0.73 0.75 0.77 0.79 0.78 0.75 0.71 0.68 0.66 0.64 0.62 0.62 0.62 0.60 0.59 0.59 0.58 0.58 0.56 0.54 0.54 0.53 0.52 0.51 0.51
1.32 1.26 1.24 1.23 1.21 1.16 1.16 1.21 1.26 1.24 1.22 1.22 1.23 1.27 1.28 1.27 1.27 1.27 1.27 1.24 1.21 1.23 1.22 1.18 1.21 1.23 1.22 1.25 1.23 1.22 1.22 1.13 1.08 1.08 1.13 1.12 1.10 1.10 1.13 1.15 1.15 1.16 1.18 1.17 1.19 1.22 1.20 1.13 1.03 0.99 0.96 0.90 0.88 0.86 0.85 0.79 0.76 0.75 0.69 0.69 0.67 0.69 0.72 0.76 0.79 0.76 0.72 0.69 0.67 0.66 0.64 0.64 0.64 0.63 0.62 0.60 0.59 0.57 0.57 0.57 0.55 0.54 0.52 0.52 0.51
1.40 1.35 1.34 1.27 1.15 1.12 1.14 1.18 1.23 1.23 1.20 1.21 1.21 1.27 1.27 1.25 1.25 1.22 1.22 1.19 1.18 1.23 1.23 1.21 1.22 1.22 1.23 1.31 1.33 1.31 1.27 1.23 1.18 1.08 1.08 1.12 1.12 1.11 1.13 1.14 1.13 1.16 1.17 1.20 1.23 1.23 1.24 1.24 1.21 1.11 1.05 1.02 0.98 0.93 0.90 0.87 0.83 0.82 0.80 0.77 0.74 0.67 0.67 0.69 0.73 0.73 0.71 0.69 0.67 0.66 0.66 0.67 0.66 0.66 0.63 0.60 0.60 0.57 0.57 0.57 0.56 0.54 0.53 0.51 0.50
1.41 1.42 1.36 1.32 1.22 1.15 1.17 1.20 1.24 1.26 1.24 1.22 1.23 1.21 1.23 1.25 1.26 1.23 1.17 1.18 1.17 1.19 1.25 1.19 1.21 1.23 1.28 1.30 1.32 1.33 1.32 1.30 1.26 1.19 1.13 1.12 1.13 1.16 1.13 1.12 1.13 1.12 1.14 1.17 1.20 1.24 1.24 1.25 1.27 1.26 1.21 1.14 1.08 1.04 1.01 0.97 0.88 0.86 0.86 0.84 0.80 0.76 0.70 0.68 0.70 0.73 0.73 0.71 0.69 0.67 0.67 0.67 0.68 0.68 0.66 0.62 0.60 0.59 0.58 0.57 0.58 0.56 0.54 0.52 0.51
1.35 1.34 1.34 1.28 1.18 1.16 1.17 1.19 1.23 1.22 1.19 1.19 1.18 1.19 1.18 1.20 1.21 1.24 1.22 1.18 1.19 1.17 1.18 1.20 1.17 1.17 1.21 1.25 1.27 1.28 1.28 1.30 1.30 1.31 1.29 1.18 1.16 1.17 1.17 1.19 1.17 1.15 1.15 1.16 1.18 1.19 1.21 1.25 1.28 1.28 1.27 1.25 1.19 1.16 1.13 1.09 1.03 0.95 0.93 0.90 0.86 0.80 0.76 0.72 0.71 0.74 0.76 0.75 0.74 0.74 0.70 0.70 0.70 0.70 0.70 0.67 0.62 0.60 0.59 0.58 0.58 0.56 0.55 0.55 0.53
1.28 1.36 1.33 1.25 1.20 1.16 1.17 1.20 1.23 1.21 1.15 1.12 1.12 1.16 1.17 1.16 1.15 1.22 1.23 1.22 1.22 1.21 1.18 1.19 1.18 1.15 1.17 1.20 1.23 1.24 1.24 1.24 1.28 1.33 1.32 1.28 1.26 1.23 1.21 1.20 1.17 1.21 1.21 1.19 1.20 1.21 1.21 1.21 1.23 1.24 1.24 1.23 1.22 1.21 1.18 1.16 1.15 1.10 1.04 1.00 0.94 0.86 0.83 0.79 0.75 0.75 0.78 0.81 0.83 0.82 0.78 0.72 0.71 0.70 0.72 0.71 0.67 0.62 0.59 0.58 0.57 0.56 0.55 0.56 0.54
1.31 1.34 1.29 1.25 1.22 1.22 1.21 1.23 1.23 1.18 1.12 1.11 1.10 1.12 1.14 1.15 1.12 1.15 1.22 1.24 1.24 1.27 1.25 1.22 1.18 1.20 1.22 1.24 1.25 1.25 1.27 1.28 1.28 1.26 1.29 1.32 1.32 1.31 1.30 1.26 1.24 1.23 1.22 1.27 1.27 1.24 1.23 1.23 1.23 1.23 1.24 1.23 1.23 1.22 1.20 1.18 1.18 1.17 1.16 1.14 1.09 1.03 0.96 0.92 0.86 0.79 0.80 0.85 0.88 0.88 0.86 0.80 0.77 0.75 0.75 0.75 0.71 0.66 0.62 0.60 0.58 0.56 0.55 0.56 0.55
1.18 1.17 1.16 1.17 1.17 1.21 1.21 1.22 1.20 1.18 1.14 1.10 1.09 1.10 1.10 1.11 1.11 1.13 1.15 1.20 1.27 1.31 1.32 1.25 1.23 1.22 1.21 1.23 1.23 1.23 1.23 1.22 1.21 1.20 1.24 1.26 1.29 1.32 1.31 1.32 1.29 1.26 1.27 1.29 1.32 1.33 1.29 1.25 1.23 1.22 1.24 1.25 1.25 1.23 1.20 1.19 1.17 1.16 1.17 1.16 1.14 1.10 1.05 1.02 0.99 0.92 0.85 0.87 0.90 0.90 0.89 0.85 0.82 0.81 0.79 0.78 0.75 0.71 0.67 0.65 0.61 0.57 0.55 0.55 0.55
1.04 1.01 0.99 1.05 1.10 1.13 1.10 1.08 1.13 1.14 1.16 1.15 1.16 1.15 1.17 1.17 1.15 1.16 1.15 1.15 1.20 1.28 1.30 1.28 1.18 1.14 1.19 1.18 1.19 1.26 1.20 1.14 1.08 1.07 1.11 1.17 1.22 1.26 1.31 1.33 1.31 1.30 1.31 1.32 1.32 1.31 1.30 1.29 1.29 1.28 1.26 1.25 1.24 1.24 1.23 1.21 1.19 1.17 1.18 1.18 1.16 1.13 1.11 1.09 1.06 1.02 0.96 0.90 0.90 0.91 0.91 0.88 0.85 0.85 0.84 0.81 0.79 0.75 0.71 0.68 0.65 0.61 0.56 0.54 0.53
0.85 0.90 0.92 0.91 0.92 0.97 0.99 0.99 1.04 1.07 1.12 1.18 1.18 1.19 1.20 1.18 1.18 1.14 1.22 1.18 1.16 1.21 1.19 1.18 1.10 1.03 0.99 1.02 1.08 1.16 1.20 1.15 1.09 1.08 1.10 1.11 1.15 1.20 1.26 1.30 1.31 1.33 1.36 1.35 1.33 1.32 1.31 1.32 1.31 1.32 1.34 1.29 1.25 1.25 1.25 1.23 1.20 1.19 1.18 1.18 1.18 1.16 1.14 1.14 1.12 1.08 1.02 0.97 0.93 0.92 0.92 0.91 0.87 0.84 0.86 0.86 0.84 0.81 0.77 0.72 0.69 0.66 0.62 0.55 0.52
0.73 0.84 0.87 0.82 0.78 0.87 0.94 1.00 1.01 1.03 1.03 1.08 1.13 1.14 1.18 1.17 1.16 1.14 1.14 1.20 1.18 1.22 1.20 1.22 1.06 1.09 1.06 0.95 0.90 0.89 1.02 1.01 1.07 1.08 1.09 1.10 1.12 1.17 1.25 1.31 1.34 1.37 1.38 1.39 1.38 1.36 1.34 1.34 1.29 1.27 1.31 1.35 1.35 1.30 1.25 1.22 1.21 1.19 1.18 1.15 1.16 1.18 1.17 1.17 1.19 1.15 1.08 1.01 0.97 0.94 0.93 0.93 0.91 0.87 0.84 0.85 0.87 0.86 0.82 0.78 0.74 0.70 0.67 0.62 0.55
0.71 0.72 0.75 0.80 0.78 0.78 0.88 0.93 0.96 1.01 1.00 0.98 1.04 1.09 1.14 1.14 1.14 1.15 1.15 1.07 1.11 1.15 1.24 1.23 1.16 1.04 0.88 0.87 0.89 0.83 0.70 0.79 0.84 0.98 1.10 1.09 1.06 1.10 1.18 1.21 1.28 1.30 1.35 1.33 1.40 1.41 1.39 1.37 1.31 1.26 1.24 1.24 1.27 1.29 1.29 1.27 1.27 1.27 1.22 1.16 1.13 1.13 1.15 1.16 1.18 1.19 1.16 1.07 1.00 0.95 0.91 0.92 0.92 0.89 0.88 0.87 0.87 0.87 0.86 0.83 0.81 0.78 0.73 0.71 0.67
0.69 0.70 0.72 0.72 0.78 0.79 0.81 0.86 0.89 0.91 0.94 0.92 0.94 0.99 1.06 1.12 1.12 1.11 1.09 1.05 1.06 1.12 1.20 1.24 1.18 1.18 1.01 0.87 0.78 0.69 0.66 0.76 0.81 0.84 0.93 0.93 1.01 1.07 1.12 1.17 1.18 1.23 1.28 1.35 1.43 1.46 1.38 1.36 1.37 1.32 1.30 1.29 1.24 1.21 1.22 1.24 1.27 1.29 1.29 1.26 1.22 1.18 1.16 1.16 1.17 1.17 1.18 1.16 1.11 1.07 1.02 1.00 1.01 1.00 1.00 0.98 0.95 0.92 0.92 0.93 0.91 0.89 0.87 0.83 0.80
0.65 0.65 0.67 0.68 0.70 0.73 0.72 0.71 0.75 0.80 0.85 0.86 0.89 0.90 0.94 0.99 1.01 1.00 0.99 1.03 1.01 1.00 0.98 1.08 1.11 1.11 1.11 1.06 0.95 0.74 0.72 0.81 0.75 0.64 0.94 1.00 0.98 1.01 1.05 1.12 1.10 1.15 1.20 1.28 1.32 1.35 1.37 1.32 1.33 1.27 1.28 1.31 1.32 1.29 1.23 1.23 1.26 1.29 1.30 1.29 1.26 1.22 1.22 1.20 1.17 1.19 1.19 1.19 1.16 1.14 1.14 1.11 1.08 1.07 1.08 1.07 1.05 1.04 1.04 1.03 1.01 0.99 0.98 0.96 0.94
0.61 0.61 0.62 0.64 0.63 0.64 0.65 0.68 0.72 0.73 0.75 0.75 0.76 0.79 0.83 0.87 0.90 0.90 0.92 0.93 0.90 0.83 0.85 0.90 1.01 1.03 1.06 1.05 1.00 0.96 0.92 0.76 0.68 0.76 0.66 0.87 0.94 0.94 0.99 1.08 1.13 1.16 1.16 1.19 1.20 1.22 1.23 1.24 1.21 1.20 1.20 1.25 1.32 1.34 1.32 1.29 1.27 1.27 1.30 1.30 1.30 1.29 1.27 1.23 1.21 1.20 1.20 1.21 1.20 1.16 1.13 1.12 1.13 1.15 1.17 1.16 1.15 1.14 1.14 1.14 1.13 1.11 1.10 1.08 1.04
0.57 0.58 0.59 0.59 0.59 0.61 0.62 0.65 0.70 0.72 0.73 0.72 0.70 0.69 0.75 0.81 0.81 0.82 0.86 0.88 0.85 0.82 0.83 0.88 0.85 0.86 0.97 0.95 0.93 0.93 0.95 0.93 0.89 0.75 0.70 0.64 0.72 0.95 1.02 1.10 1.16 1.16 1.15 1.13 1.13 1.15 1.19 1.19 1.15 1.16 1.20 1.20 1.22 1.27 1.32 1.34 1.35 1.33 1.31 1.32 1.33 1.32 1.30 1.28 1.26 1.23 1.19 1.18 1.19 1.20 1.17 1.18 1.21 1.23 1.25 1.25 1.24 1.24 1.22 1.21 1.22 1.21 1.20 1.18 1.15
0.46 0.49 0.52 0.54 0.55 0.54 0.55 0.56 0.62 0.68 0.70 0.70 0.67 0.64 0.65 0.70 0.72 0.69 0.72 0.78 0.83 0.84 0.81 0.80 0.82 0.80 0.82 0.83 0.86 0.85 0.88 0.87 0.88 0.87 0.76 0.71 0.74 0.79 0.86 1.08 1.13 1.12 1.06 0.99 0.93 0.91 0.93 1.10 1.15 1.10 1.12 1.14 1.17 1.16 1.19 1.27 1.33 1.32 1.32 1.34 1.34 1.34 1.34 1.34 1.34 1.31 1.25 1.21 1.19 1.20 1.22 1.29 1.34 1.35 1.32 1.32 1.33 1.31 1.29 1.29 1.30 1.28 1.28 1.27 1.25
0.39 0.41 0.46 0.50 0.50 0.50 0.48 0.48 0.48 0.52 0.58 0.60 0.56 0.61 0.63 0.63 0.64 0.63 0.64 0.69 0.73 0.75 0.73 0.73 0.73 0.74 0.77 0.80 0.76 0.76 0.78 0.78 0.79 0.76 0.75 0.75 0.68 0.74 0.78 0.74 0.71 0.80 0.87 0.89 0.89 0.83 0.79 0.86 0.98 1.06 1.02 1.02 1.08 1.13 1.17 1.19 1.25 1.31 1.33 1.32 1.31 1.32 1.35 1.39 1.40 1.37 1.34 1.30 1.26 1.24 1.24 1.25 1.28 1.33 1.37 1.39 1.39 1.38 1.37 1.36 1.36 1.36 1.34 1.34 1.33
0.42 0.41 0.42 0.44 0.46 0.47 0.47 0.47 0.46 0.43 0.39 0.41 0.45 0.49 0.54 0.58 0.59 0.56 0.55 0.61 0.63 0.63 0.62 0.64 0.62 0.61 0.63 0.67 0.67 0.65 0.62 0.60 0.62 0.66 0.66 0.64 0.60 0.59 0.58 0.55 0.54 0.54 0.64 0.70 0.72 0.72 0.65 0.63 0.68 0.81 0.97 1.05 1.07 1.10 1.16 1.18 1.20 1.23 1.29 1.33 1.33 1.35 1.36 1.38 1.39 1.39 1.38 1.39 1.39 1.35 1.32 1.32 1.33 1.35 1.37 1.40 1.42 1.43 1.41 1.41 1.41 1.41 1.39 1.39 1.38
0.41 0.40 0.39 0.40 0.42 0.44 0.45 0.45 0.45 0.45 0.45 0.46 0.45 0.43 0.42 0.40 0.40 0.39 0.39 0.42 0.44 0.44 0.43 0.42 0.44 0.44 0.45 0.47 0.46 0.46 0.47 0.46 0.47 0.47 0.45 0.42 0.39 0.35 0.33 0.36 0.38 0.41 0.45 0.44 0.48 0.52 0.56 0.61 0.68 0.76 0.87 1.00 1.08 1.12 1.15 1.18 1.19 1.24 1.28 1.30 1.36 1.38 1.38 1.39 1.40 1.41 1.43 1.46 1.48 1.44 1.39 1.38 1.38 1.38 1.40 1.43 1.47 1.47 1.48 1.48 1.47 1.45 1.44 1.42 1.42
0.38 0.37 0.38 0.40 0.40 0.39 0.41 0.42 0.43 0.46 0.46 0.46 0.47 0.47 0.44 0.41 0.39 0.37 0.34 0.32 0.32 0.33 0.32 0.33 0.35 0.36 0.36 0.40 0.41 0.41 0.41 0.43 0.42 0.38 0.36 0.36 0.34 0.30 0.37 0.40 0.34 0.35 0.40 0.43 0.43 0.47 0.53 0.58 0.67 0.73 0.82 0.94 1.07 1.15 1.19 1.19 1.24 1.29 1.30 1.33 1.33 1.33 1.32 1.32 1.34 1.36 1.36 1.39 1.44 1.42 1.37 1.35 1.37 1.40 1.42 1.45 1.49 1.52 1.54 1.54 1.50 1.48 1.47 1.45 1.45
0.39 0.38 0.40 0.42 0.42 0.40 0.40 0.41 0.42 0.43 0.44 0.44 0.42 0.40 0.39 0.39 0.40 0.38 0.37 0.37 0.36 0.32 0.32 0.33 0.34 0.36 0.38 0.36 0.36 0.36 0.36 0.38 0.39 0.38 0.37 0.37 0.36 0.34 0.32 0.34 0.35 0.33 0.39 0.40 0.47 0.47 0.52 0.59 0.65 0.70 0.77 0.83 0.95 1.11 1.21 1.29 1.34 1.31 1.33 1.35 1.31 1.30 1.31 1.29 1.27 1.24 1.25 1.30 1.35 1.39 1.40 1.37 1.37 1.41 1.46 1.49 1.50 1.51 1.53 1.55 1.55 1.51 1.49 1.47 1.46
0.46 0.46 0.47 0.46 0.44 0.42 0.41 0.40 0.41 0.43 0.45 0.46 0.46 0.46 0.44 0.43 0.42 0.41 0.38 0.37 0.36 0.35 0.33 0.31 0.30 0.32 0.33 0.31 0.29 0.30 0.31 0.33 0.33 0.33 0.36 0.36 0.33 0.32 0.28 0.22 0.24 0.29 0.28 0.36 0.40 0.46 0.52 0.59 0.64 0.65 0.72 0.77 0.80 0.92 1.14 1.30 1.35 1.40 1.41 1.40 1.36 1.32 1.29 1.28 1.26 1.24 1.22 1.23 1.26 1.29 1.30 1.31 1.30 1.32 1.37 1.44 1.49 1.50 1.52 1.55 1.56 1.55 1.55 1.52 1.48
0.55 0.52 0.53 0.52 0.47 0.43 0.41 0.40 0.41 0.42 0.45 0.46 0.47 0.47 0.45 0.42 0.41 0.40 0.38 0.41 0.37 0.33 0.33 0.31 0.31 0.33 0.34 0.35 0.31 0.28 0.31 0.34 0.33 0.30 0.32 0.33 0.34 0.33 0.34 0.30 0.22 0.18 0.23 0.21 0.27 0.33 0.50 0.52 0.59 0.66 0.69 0.72 0.77 0.85 1.01 1.17 1.26 1.23 1.23 1.27 1.27 1.21 1.16 1.15 1.16 1.16 1.16 1.18 1.20 1.21 1.22 1.21 1.19 1.19 1.21 1.27 1.35 1.42 1.46 1.51 1.56 1.56 1.56 1.53 1.49
0.63 0.61 0.56 0.57 0.54 0.51 0.48 0.46 0.44 0.43 0.44 0.47 0.47 0.48 0.46 0.44 0.44 0.44 0.47 0.51 0.48 0.43 0.41 0.40 0.38 0.36 0.36 0.36 0.35 0.33 0.31 0.34 0.32 0.31 0.31 0.31 0.32 0.33 0.34 0.31 0.31 0.24 0.19 0.18 0.22 0.23 0.33 0.47 0.49 0.58 0.64 0.68 0.71 0.79 0.87 0.94 0.99 0.99 0.96 1.01 1.07 1.11 1.12 1.10 1.09 1.09 1.10 1.11 1.13 1.17 1.20 1.20 1.18 1.14 1.11 1.11 1.12 1.17 1.22 1.26 1.31 1.34 1.36 1.38 1.41
0.67 0.66 0.64 0.59 0.58 0.56 0.54 0.54 0.53 0.52 0.51 0.52 0.50 0.51 0.51 0.50 0.51 0.53 0.54 0.54 0.53 0.52 0.52 0.50 0.47 0.47 0.46 0.45 0.45 0.41 0.40 0.41 0.41 0.42 0.40 0.37 0.34 0.33 0.31 0.32 0.33 0.27 0.26 0.21 0.20 0.28 0.28 0.33 0.43 0.48 0.58 0.61 0.64 0.67 0.72 0.78 0.83 0.86 0.88 0.90 0.94 0.97 0.99 1.00 1.03 1.06 1.06 1.00 0.95 0.94 0.95 0.97 0.95 0.94 0.96 1.01 1.03 1.05 1.06 1.10 1.14 1.18 1.21 1.23 1.26
0.73 0.72 0.70 0.69 0.65 0.62 0.60 0.58 0.58 0.58 0.60 0.60 0.57 0.56 0.58 0.55 0.55 0.55 0.55 0.55 0.53 0.53 0.54 0.54 0.53 0.51 0.51 0.51 0.52 0.50 0.48 0.47 0.47 0.50 0.48 0.45 0.44 0.40 0.39 0.37 0.34 0.32 0.28 0.26 0.20 0.27 0.31 0.25 0.30 0.36 0.41 0.49 0.53 0.55 0.58 0.62 0.68 0.74 0.76 0.77 0.77 0.76 0.75 0.75 0.77 0.79 0.78 0.75 0.73 0.77 0.79 0.78 0.78 0.78 0.77 0.74 0.75 0.81 0.89 0.95 1.01 1.05 1.07 1.10 1.14
0.79 0.79 0.77 0.74 0.71 0.67 0.65 0.64 0.62 0.62 0.62 0.63 0.61 0.59 0.62 0.59 0.57 0.57 0.56 0.56 0.56 0.55 0.54 0.56 0.55 0.55 0.54 0.54 0.54 0.53 0.51 0.51 0.55 0.57 0.57 0.54 0.52 0.50 0.48 0.45 0.42 0.41 0.37 0.32 0.27 0.24 0.32 0.31 0.31 0.32 0.34 0.34 0.41 0.44 0.47 0.50 0.51 0.50 0.52 0.56 0.60 0.60 0.59 0.56 0.54 0.53 0.52 0.52 0.55 0.57 0.58 0.60 0.64 0.69 0.72 0.74 0.74 0.74 0.75 0.80 0.87 0.94 0.99 1.01 1.03
0.87 0.85 0.84 0.83 0.80 0.77 0.72 0.70 0.68 0.66 0.64 0.64 0.65 0.61 0.64 0.61 0.59 0.59 0.58 0.59 0.59 0.58 0.57 0.53 0.57 0.56 0.57 0.58 0.59 0.59 0.58 0.55 0.57 0.58 0.57 0.56 0.56 0.55 0.56 0.55 0.51 0.50 0.47 0.40 0.32 0.28 0.30 0.35 0.34 0.34 0.37 0.38 0.33 0.36 0.33 0.32 0.31 0.34 0.36 0.38 0.40 0.41 0.42 0.41 0.40 0.40 0.43 0.46 0.51 0.52 0.50 0.52 0.54 0.56 0.61 0.65 0.68 0.68 0.68 0.69 0.73 0.79 0.83 0.87 0.91
0.90 0.89 0.90 0.90 0.89 0.87 0.84 0.82 0.79 0.76 0.72 0.69 0.67 0.65 0.64 0.63 0.60 0.61 0.59 0.58 0.61 0.60 0.59 0.55 0.57 0.57 0.56 0.56 0.57 0.60 0.61 0.57 0.55 0.54 0.57 0.55 0.53 0.50 0.50 0.50 0.49 0.48 0.50 0.44 0.39 0.35 0.32 0.37 0.35 0.38 0.37 0.40 0.32 0.34 0.31 0.31 0.32 0.34 0.34 0.35 0.37 0.39 0.39 0.41 0.41 0.42 0.44 0.45 0.45 0.46 0.47 0.49 0.51 0.52 0.53 0.54 0.58 0.63 0.64 0.65 0.67 0.69 0.71 0.73 0.76
0.93 0.92 0.91 0.92 0.92 0.92 0.91 0.90 0.89 0.87 0.86 0.82 0.78 0.73 0.69 0.69 0.65 0.65 0.64 0.61 0.60 0.59 0.59 0.58 0.58 0.57 0.55 0.53 0.54 0.57 0.58 0.57 0.56 0.56 0.59 0.57 0.55 0.53 0.52 0.50 0.47 0.46 0.46 0.46 0.44 0.42 0.41 0.41 0.42 0.38 0.36 0.35 0.31 0.30 0.32 0.33 0.34 0.35 0.34 0.35 0.36 0.38 0.39 0.40 0.40 0.41 0.43 0.43 0.43 0.45 0.46 0.47 0.49 0.51 0.52 0.53 0.55 0.59 0.64 0.66 0.67 0.66 0.64 0.63 0.65
0.96 1.01 1.01 0.97 0.94 0.93 0.93 0.93 0.92 0.91 0.91 0.90 0.88 0.87 0.82 0.79 0.75 0.71 0.72 0.69 0.64 0.62 0.61 0.60 0.60 0.58 0.56 0.55 0.53 0.55 0.55 0.53 0.52 0.55 0.59 0.61 0.59 0.57 0.55 0.52 0.48 0.48 0.49 0.49 0.49 0.45 0.44 0.40 0.42 0.41 0.41 0.36 0.33 0.33 0.33 0.35 0.35 0.35 0.36 0.37 0.39 0.38 0.38 0.39 0.39 0.40 0.43 0.44 0.46 0.47 0.47 0.47 0.48 0.48 0.51 0.55 0.56 0.59 0.63 0.65 0.63 0.61 0.59 0.58 0.57
0.95 1.01 1.05 1.04 1.01 0.99 0.96 0.95 0.93 0.92 0.92 0.92 0.91 0.90 0.90 0.89 0.87 0.84 0.82 0.79 0.75 0.71 0.70 0.68 0.66 0.64 0.64 0.62 0.61 0.60 0.59 0.56 0.55 0.54 0.58 0.59 0.60 0.59 0.57 0.55 0.49 0.46 0.46 0.47 0.47 0.47 0.43 0.40 0.40 0.42 0.42 0.39 0.39 0.39 0.39 0.36 0.35 0.35 0.36 0.36 0.37 0.38 0.39 0.41 0.42 0.44 0.44 0.44 0.44 0.45 0.47 0.47 0.48 0.49 0.49 0.51 0.55 0.60 0.63 0.65 0.66 0.65 0.63 0.61 0.59
0.93 0.97 1.00 1.00 1.00 0.99 0.99 1.00 0.99 0.96 0.96 0.95 0.94 0.93 0.92 0.91 0.88 0.86 0.85 0.82 0.80 0.76 0.74 0.73 0.72 0.72 0.71 0.69 0.66 0.63 0.61 0.58 0.56 0.56 0.56 0.57 0.59 0.58 0.55 0.52 0.49 0.45 0.42 0.43 0.43 0.43 0.41 0.41 0.40 0.39 0.40 0.39 0.41 0.41 0.41 0.40 0.37 0.34 0.34 0.36 0.37 0.37 0.37 0.37 0.39 0.43 0.44 0.43 0.42 0.43 0.45 0.47 0.49 0.52 0.53 0.54 0.55 0.60 0.66 0.70 0.70 0.69 0.68 0.66 0.64
0.94 0.94 0.97 0.99 0.98 0.95 0.95 1.01 1.02 1.02 1.01 0.99 0.96 0.95 0.93 0.92 0.90 0.86 0.83 0.80 0.79 0.77 0.74 0.71 0.70 0.72 0.74 0.74 0.71 0.66 0.62 0.60 0.58 0.57 0.56 0.56 0.56 0.55 0.55 0.52 0.50 0.46 0.40 0.38 0.39 0.38 0.37 0.36 0.36 0.37 0.38 0.41 0.41 0.39 0.41 0.41 0.39 0.37 0.34 0.33 0.32 0.35 0.36 0.37 0.35 0.39 0.43 0.43 0.43 0.42 0.43 0.46 0.48 0.50 0.52 0.54 0.56 0.57 0.59 0.64 0.68 0.70 0.71 0.69 0.66
0.98 0.96 0.94 0.91 0.91 0.91 0.89 0.90 0.97 1.02 1.02 1.00 0.97 0.95 0.94 0.91 0.89 0.87 0.84 0.82 0.81 0.80 0.78 0.75 0.72 0.71 0.71 0.72 0.74 0.73 0.70 0.65 0.61 0.58 0.56 0.53 0.54 0.55 0.54 0.51 0.47 0.41 0.36 0.34 0.32 0.32 0.31 0.30 0.30 0.31 0.33 0.34 0.36 0.38 0.40 0.40 0.37 0.34 0.36 0.34 0.30 0.30 0.31 0.33 0.34 0.33 0.36 0.37 0.37 0.39 0.41 0.42 0.44 0.48 0.50 0.52 0.56 0.59 0.63 0.67 0.71 0.73 0.73 0.70 0.68
0.97 0.96 0.94 0.92 0.89 0.88 0.91 0.92 0.93 0.95 0.98 0.99 0.99 0.96 0.94 0.93 0.91 0.89 0.87 0.84 0.81 0.79 0.78 0.76 0.75 0.73 0.72 0.73 0.74 0.74 0.72 0.69 0.65 0.60 0.57 0.55 0.53 0.51 0.50 0.48 0.44 0.38 0.35 0.32 0.29 0.27 0.28 0.28 0.28 0.30 0.31 0.32 0.33 0.35 0.36 0.37 0.36 0.36 0.38 0.37 0.34 0.34 0.33 0.32 0.33 0.37 0.40 0.38 0.39 0.40 0.40 0.42 0.41 0.42 0.44 0.44 0.48 0.51 0.55 0.62 0.69 0.71 0.72 0.73 0.73
0.87 0.89 0.90 0.91 0.87 0.85 0.85 0.86 0.89 0.92 0.93 0.94 0.95 0.95 0.95 0.93 0.91 0.90 0.89 0.86 0.83 0.80 0.78 0.76 0.75 0.74 0.74 0.74 0.74 0.73 0.69 0.65 0.63 0.62 0.59 0.57 0.57 0.55 0.52 0.48 0.43 0.39 0.37 0.35 0.33 0.31 0.29 0.27 0.27 0.28 0.27 0.28 0.30 0.33 0.34 0.37 0.39 0.41 0.40 0.39 0.34 0.35 0.35 0.34 0.35 0.38 0.43 0.41 0.38 0.35 0.37 0.42 0.42 0.41 0.43 0.43 0.47 0.50 0.53 0.57 0.60 0.64 0.66 0.68 0.72
0.84 0.87 0.87 0.83 0.83 0.86 0.84 0.83 0.83 0.87 0.93 0.95 0.95 0.94 0.95 0.95 0.94 0.91 0.88 0.86 0.85 0.82 0.78 0.75 0.73 0.74 0.73 0.73 0.72 0.71 0.67 0.65 0.63 0.61 0.59 0.58 0.58 0.56 0.54 0.52 0.51 0.47 0.43 0.39 0.36 0.33 0.30 0.29 0.29 0.29 0.28 0.28 0.29 0.32 0.33 0.35 0.38 0.39 0.41 0.42 0.41 0.39 0.37 0.33 0.30 0.34 0.41 0.39 0.37 0.33 0.31 0.35 0.38 0.35 0.37 0.40 0.44 0.47 0.50 0.53 0.56 0.58 0.62 0.66 0.68
0.80 0.82 0.82 0.81 0.80 0.82 0.85 0.86 0.86 0.87 0.87 0.89 0.90 0.90 0.91 0.91 0.91 0.90 0.87 0.85 0.83 0.80 0.78 0.77 0.76 0.74 0.72 0.71 0.71 0.68 0.64 0.64 0.63 0.61 0.60 0.59 0.59 0.59 0.57 0.55 0.55 0.53 0.49 0.45 0.40 0.36 0.34 0.32 0.31 0.32 0.32 0.31 0.32 0.34 0.34 0.35 0.36 0.37 0.38 0.40 0.41 0.41 0.39 0.37 0.36 0.33 0.39 0.41 0.35 0.32 0.30 0.34 0.35 0.33 0.31 0.32 0.36 0.40 0.44 0.46 0.49 0.54 0.58 0.63 0.66
0.73 0.71 0.71 0.71 0.70 0.69 0.69 0.70 0.70 0.72 0.74 0.79 0.83 0.84 0.84 0.84 0.86 0.86 0.83 0.81 0.78 0.76 0.76 0.74 0.73 0.71 0.72 0.73 0.71 0.68 0.67 0.65 0.64 0.62 0.60 0.59 0.60 0.59 0.57 0.57 0.57 0.55 0.52 0.48 0.45 0.41 0.39 0.36 0.33 0.32 0.33 0.34 0.34 0.35 0.38 0.38 0.39 0.36 0.36 0.36 0.39 0.40 0.41 0.40 0.40 0.40 0.41 0.44 0.38 0.33 0.29 0.31 0.34 0.31 0.30 0.31 0.32 0.32 0.33 0.38 0.42 0.48 0.54 0.59 0.64
0.71 0.73 0.74 0.72 0.70 0.70 0.69 0.66 0.63 0.63 0.63 0.65 0.66 0.69 0.74 0.78 0.80 0.79 0.77 0.77 0.79 0.78 0.76 0.77 0.76 0.73 0.73 0.71 0.69 0.66 0.63 0.62 0.61 0.58 0.56 0.56 0.56 0.56 0.55 0.56 0.58 0.56 0.53 0.49 0.46 0.43 0.41 0.38 0.36 0.33 0.36 0.38 0.35 0.37 0.39 0.40 0.38 0.36 0.35 0.35 0.37 0.37 0.38 0.38 0.40 0.41 0.43 0.45 0.40 0.38 0.33 0.33 0.36 0.34 0.33 0.35 0.38 0.37 0.35 0.35 0.37 0.41 0.47 0.53 0.56
0.66 0.68 0.73 0.72 0.71 0.69 0.65 0.60 0.55 0.53 0.55 0.58 0.61 0.64 0.67 0.70 0.73 0.77 0.80 0.81 0.79 0.77 0.74 0.72 0.68 0.70 0.72 0.71 0.67 0.61 0.59 0.57 0.57 0.56 0.55 0.56 0.56 0.57 0.58 0.58 0.58 0.57 0.54 0.50 0.47 0.45 0.43 0.41 0.40 0.40 0.40 0.40 0.40 0.40 0.40 0.42 0.41 0.40 0.40 0.39 0.39 0.38 0.37 0.38 0.39 0.41 0.42 0.45 0.43 0.40 0.32 0.35 0.38 0.35 0.34 0.37 0.39 0.39 0.39 0.39 0.40 0.41 0.41 0.43 0.46
0.54 0.56 0.60 0.62 0.62 0.64 0.65 0.63 0.57 0.53 0.53 0.56 0.58 0.60 0.62 0.66 0.68 0.69 0.67 0.67 0.66 0.66 0.69 0.76 0.76 0.75 0.73 0.67 0.62 0.57 0.55 0.54 0.54 0.54 0.54 0.55 0.55 0.54 0.53 0.54 0.54 0.53 0.51 0.50 0.49 0.47 0.46 0.44 0.44 0.44 0.44 0.43 0.42 0.41 0.41 0.40 0.39 0.39 0.39 0.40 0.39 0.37 0.34 0.32 0.31 0.35 0.36 0.41 0.43 0.40 0.36 0.35 0.40 0.37 0.35 0.40 0.42 0.40 0.42 0.43 0.45 0.46 0.48 0.49 0.50
0.50 0.50 0.47 0.53 0.57 0.60 0.61 0.61 0.57 0.54 0.54 0.55 0.56 0.57 0.59 0.60 0.62 0.62 0.62 0.64 0.65 0.67 0.68 0.66 0.63 0.63 0.62 0.60 0.58 0.58 0.58 0.55 0.55 0.56 0.57 0.57 0.56 0.54 0.52 0.51 0.50 0.49 0.48 0.50 0.50 0.50 0.48 0.46 0.45 0.44 0.44 0.43 0.42 0.41 0.40 0.40 0.39 0.38 0.36 0.33 0.31 0.33 0.30 0.27 0.28 0.30 0.31 0.37 0.41 0.42 0.39 0.35 0.38 0.39 0.37 0.39 0.39 0.39 0.41 0.44 0.48 0.51 0.53 0.55 0.56
0.46 0.49 0.52 0.52 0.53 0.55 0.56 0.55 0.54 0.52 0.52 0.53 0.54 0.56 0.57 0.59 0.61 0.59 0.59 0.59 0.59 0.58 0.58 0.60 0.60 0.59 0.59 0.60 0.59 0.58 0.56 0.55 0.57 0.57 0.58 0.58 0.55 0.53 0.52 0.50 0.49 0.47 0.47 0.48 0.47 0.45 0.45 0.43 0.42 0.41 0.41 0.40 0.40 0.39 0.38 0.38 0.37 0.37 0.34 0.29 0.31 0.32 0.28 0.29 0.26 0.29 0.31 0.34 0.37 0.42 0.38 0.36 0.40 0.41 0.38 0.40 0.40 0.41 0.41 0.45 0.49 0.52 0.55 0.58 0.60
0.45 0.49 0.52 0.52 0.53 0.55 0.55 0.54 0.54 0.52 0.52 0.52 0.53 0.55 0.56 0.58 0.59 0.58 0.56 0.55 0.53 0.52 0.52 0.52 0.55 0.56 0.57 0.57 0.57 0.56 0.56 0.56 0.56 0.56 0.57 0.56 0.52 0.50 0.49 0.47 0.45 0.43 0.42 0.42 0.41 0.40 0.39 0.38 0.37 0.36 0.36 0.36 0.36 0.35 0.34 0.34 0.34 0.35 0.34 0.32 0.32 0.30 0.27 0.27 0.28 0.29 0.27 0.29 0.36 0.40 0.34 0.35 0.39 0.41 0.41 0.37 0.34 0.39 0.42 0.43 0.47 0.52 0.56 0.60 0.62
Wind_Speed
11 11 11 11 10 9 9 9 9 9 9 9 9 9 9 9 8 9 9 10 10 11 12 11 12 14 14 14 16 17 16 16 18 18 18 19 20 19 19 19 20 20 20 20 19 19 19 19 19 19 18 18 17 16 15 14 13 13 12 11 11 10 9 8 7 6 5 5 4 4 3 3 2 2 2 2 3 3 3 4 4 5 5 6 6
12 11 10 11 10 10 9 9 9 9 9 9 9 9 9 9 10 10 10 10 10 11 12 12 12 13 13 14 14 16 16 16 17 18 18 18 19 19 19 19 20 20 20 20 20 20 20 20 20 19 19 19 18 17 17 16 15 14 13 13 12 11 11 10 9 8 7 6 6 5 5 4 4 3 3 3 3 3 3 3 3 4 4 4 5
11 11 10 10 10 10 10 9 9 9 9 9 10 10 10 10 10 10 10 10 10 10 11 11 11 12 13 13 14 15 16 16 17 18 19 18 19 19 19 19 19 19 20 21 20 20 21 21 20 20 19 19 19 18 18 17 17 16 15 14 14 13 12 11 10 10 9 8 7 7 6 6 5 5 5 4 4 4 3 3 3 3 3 4 4
11 11 11 10 10 10 10 9 10 10 9 10 10 10 10 10 10 10 9 9 9 10 10 11 10 11 12 13 14 14 16 16 17 18 19 19 19 19 19 18 18 19 19 20 20 20 21 21 21 20 20 19 19 19 18 18 18 17 16 16 15 15 14 13 12 11 11 10 9 8 8 8 7 7 6 6 6 5 5 4 4 4 3 3 4
11 11 11 11 10 10 10 10 10 10 10 10 10 11 10 10 10 10 10 10 10 9 10 10 10 11 12 12 13 14 14 15 16 17 18 19 19 18 19 19 18 18 19 19 20 20 21 21 21 21 20 20 20 20 19 18 18 18 17 17 16 16 16 15 14 13 13 12 11 11 10 10 9 9 8 8 7 7 6 6 5 5 4 4 4
12 11 11 11 10 10 10 10 10 10 11 11 11 11 11 10 10 11 10 10 10 10 9 10 10 10 11 12 13 13 13 14 15 16 17 19 19 18 18 19 19 19 19 19 19 20 20 21 21 22 21 21 21 20 20 19 19 19 18 18 17 17 17 16 16 15 15 14 13 13 12 12 11 11 10 9 9 9 8 7 7 6 6 5 5
12 12 11 10 10 9 10 10 10 10 11 11 11 11 11 11 11 11 11 10 10 10 10 10 10 10 11 11 12 13 13 13 14 15 16 17 19 19 19 19 19 20 19 19 19 20 20 21 21 22 22 22 21 21 21 20 20 19 19 19 18 18 18 17 17 17 16 16 15 14 14 14 13 13 12 11 11 10 10 9 9 8 7 7 6
12 12 11 11 10 10 10 10 10 10 10 11 11 11 12 11 11 11 11 10 10 10 10 10 10 10 11 11 12 13 13 14 14 15 15 15 17 18 19 19 20 20 20 20 20 20 20 21 21 21 22 22 22 22 22 22 21 20 20 19 19 18 18 18 17 17 17 17 16 16 16 15 15 14 14 13 13 12 11 11 10 10 9 8 7
11 11 11 11 11 10 10 10 10 10 10 10 11 11 12 11 11 11 11 11 11 11 10 10 11 11 11 12 12 13 13 13 14 14 15 15 16 17 18 19 20 21 21 21 21 21 21 21 21 22 22 23 23 23 22 22 22 21 20 20 19 19 18 18 18 17 17 17 17 17 17 17 16 16 16 15 14 13 13 12 11 11 10 10 9
12 12 11 11 11 11 11 11 11 10 10 10 11 11 11 11 11 11 12 11 11 11 10 10 10 10 11 11 12 12 13 13 14 14 15 16 16 17 17 18 19 21 22 23 23 22 22 22 22 22 22 23 23 23 23 22 22 22 21 20 20 19 19 18 18 18 17 17 17 17 17 17 17 17 17 16 15 15 14 13 13 12 12 11 10
12 12 11 11 11 11 11 11 11 11 11 11 11 11 11 11 11 12 12 11 11 11 10 10 10 10 10 10 11 12 12 13 14 15 15 16 17 17 18 18 18 19 21 23 24 24 24 23 23 22 22 23 23 23 23 23 22 22 22 21 21 20 20 19 19 18 18 18 17 17 17 17 17 17 17 17 16 16 15 14 14 13 13 12 12
11 11 11 11 11 11 11 11 11 11 11 11 11 11 11 11 12 12 12 12 11 11 10 10 10 10 10 11 11 12 12 13 13 14 15 16 17 18 18 19 20 19 19 20 22 24 24 24 24 23 23 23 23 24 24 24 23 23 22 22 22 21 21 20 20 19 19 19 18 18 18 18 18 18 17 17 17 16 16 15 15 14 14 13 13
11 11 11 11 11 11 11 11 11 11 11 11 11 11 11 12 12 12 13 12 11 11 10 10 10 10 11 11 11 12 12 12 13 14 15 16 16 17 18 19 20 20 20 20 21 22 23 25 25 25 24 24 24 24 24 24 24 24 23 23 22 22 21 21 20 20 20 20 19 19 18 18 18 18 18 17 17 17 16 16 15 15 15 14 14
11 11 11 11 11 12 11 11 11 11 11 11 11 11 12 12 12 12 13 12 12 12 12 11 11 11 11 10 11 11 11 12 13 14 15 16 16 17 17 19 19 20 20 20 21 21 22 23 24 25 25 25 25 25 25 24 24 24 24 23 23 23 22 22 21 21 21 20 20 20 19 19 18 18 18 17 17 17 16 16 16 16 15 15 15
9 10 10 11 11 11 11 11 10 10 10 11 11 11 12 12 12 12 13 13 13 12 12 12 11 11 10 10 10 10 10 11 12 13 14 15 16 17 17 17 19 20 20 20 21 21 21 22 22 24 25 25 25 25 25 25 25 25 24 24 23 23 23 22 22 22 22 21 21 21 20 20 19 18 17 17 17 17 17 16 16 16 16 16 16
8 8 8 9 9 9 10 10 9 9 9 9 10 10 11 12 13 13 13 13 13 13 13 12 12 11 10 10 10 10 10 11 11 11 12 12 13 15 16 17 17 18 20 20 19 20 21 21 21 23 24 25 25 25 25 26 25 25 25 24 24 23 23 23 22 22 22 22 21 21 21 20 19 19 18 17 17 17 17 17 16 16 17 17 16
7 7 6 6 7 7 8 8 8 8 9 9 9 10 10 11 12 13 14 14 14 14 13 13 13 12 12 11 11 11 11 11 11 11 11 11 12 13 14 16 16 17 18 18 18 18 19 20 21 22 23 25 25 25 25 25 25 25 25 25 25 24 24 23 23 22 22 22 21 21 21 21 20 20 19 18 18 18 17 17 17 17 17 17 17
6 6 6 5 5 6 6 7 7 7 8 8 8 9 10 10 11 12 13 14 14 14 14 14 14 13 13 13 12 12 12 12 11 11 12 12 12 12 12 13 15 16 17 17 18 18 18 20 20 21 22 23 25 25 26 25 25 26 26 25 25 25 24 24 24 23 22 22 22 21 21 21 21 21 20 20 19 19 18 18 17 17 17 17 17
5 5 5 5 5 5 5 6 6 6 6 7 7 8 8 9 10 10 12 13 13 14 14 14 14 14 14 14 13 13 12 12 12 12 12 12 12 12 12 12 13 14 15 16 17 18 19 20 21 21 23 23 24 24 25 26 27 27 26 26 26 25 25 25 25 25 24 23 23 22 22 22 22 21 21 21 20 20 19 19 19 18 18 18 18
5 5 5 5 5 5 5 6 6 6 6 6 7 7 7 8 8 9 9 10 11 12 12 13 13 13 13 13 14 14 13 13 12 12 12 12 12 12 11 11 11 11 11 12 14 16 18 20 21 22 22 24 24 24 24 26 27 28 27 27 26 26 26 26 26 26 26 25 24 24 24 23 23 23 23 22 22 21 21 21 20 20 19 19 18
5 5 5 5 4 4 4 5 5 6 6 6 6 7 7 7 7 7 7 8 8 9 9 10 11 11 12 12 12 12 12 11 12 11 11 11 11 11 10 10 10 10 11 11 11 13 14 17 20 21 22 23 24 25 24 25 25 26 27 27 27 26 26 26 27 27 27 27 26 26 25 25 25 25 25 24 24 23 23 22 22 21 21 20 20
4 3 4 4 4 4 3 4 4 4 5 5 6 6 6 6 7 7 7 6 6 7 7 7 8 9 10 10 11 11 11 10 10 11 10 10 10 10 10 10 11 11 11 12 12 13 13 14 16 19 21 22 23 24 24 25 25 25 25 26 26 26 26 26 26 27 27 27 27 27 26 26 26 27 26 26 26 25 25 24 24 23 23 22 21
3 3 3 3 3 3 3 3 2 2 3 4 4 5 5 5 6 6 6 6 6 6 6 6 7 7 7 8 9 9 9 9 9 9 9 9 10 11 11 11 12 12 12 13 13 13 13 12 13 15 18 19 21 23 23 24 24 24 24 25 25 25 25 25 25 26 26 27 27 27 27 26 27 27 28 28 28 27 27 26 25 25 24 24 23
3 3 3 3 3 2 2 2 2 2 2 2 2 3 3 4 4 4 4 5 5 5 6 6 6 6 6 7 7 8 8 9 9 9 9 10 10 11 11 11 12 12 13 13 13 12 12 12 12 13 15 17 19 21 23 24 24 23 23 24 25 25 25 25 25 25 25 25 25 26 26 26 27 27 28 29 29 29 28 28 27 26 26 25 24
3 3 3 2 2 2 2 2 2 2 2 2 2 2 2 2 2 2 2 2 3 4 4 5 5 5 6 6 7 7 7 8 8 9 10 10 10 10 11 11 11 12 11 11 11 11 11 11 11 11 12 13 16 18 21 22 23 23 23 24 24 25 25 25 25 25 25 26 26 26 27 27 27 27 27 28 29 29 29 30 29 28 28 27 26
3 3 3 2 2 2 2 2 2 1 1 1 2 2 1 1 1 1 1 1 1 2 2 3 4 4 5 5 6 6 6 7 7 8 9 9 9 10 10 10 11 11 11 10 10 10 10 10 10 9 10 11 12 15 18 20 22 22 23 23 24 24 25 25 25 25 26 26 27 27 28 28 28 28 28 28 29 30 30 31 31 31 30 30 29
3 3 2 2 2 2 2 2 2 2 1 1 1 1 1 1 1 0 0 0 0 1 1 2 2 3 3 4 4 5 5 5 6 6 7 8 8 8 9 10 10 11 11 11 11 11 11 11 10 10 10 10 10 11 13 15 18 19 21 21 22 23 23 24 25 25 25 26 26 27 27 28 28 28 28 28 29 29 30 31 31 32 32 32 31
3 2 2 2 2 2 2 2 2 2 2 2 1 1 1 1 1 0 0 0 1 1 1 1 1 2 2 3 3 3 4 4 5 5 6 6 6 7 7 8 9 9 10 10 10 11 11 11 11 10 10 10 10 10 10 11 12 15 17 19 20 22 22 23 23 24 25 25 25 25 25 26 27 28 28 29 29 29 30 30 30 31 31 31 31
3 3 3 3 3 3 3 3 3 3 3 2 2 2 1 1 1 1 1 1 1 1 1 1 1 2 2 3 3 3 3 4 4 5 5 5 6 6 7 7 7 8 9 9 9 10 11 11 11 11 11 11 11 11 10 11 11 12 14 16 18 20 21 22 22 23 24 24 24 24 25 25 26 27 27 28 28 29 29 29 29 30 30 30 31
5 4 4 4 4 4 4 4 4 4 3 3 3 3 2 2 2 2 2 2 2 2 2 2 2 2 3 3 3 4 4 4 5 5 5 5 6 7 7 8 8 8 8 9 10 10 11 11 11 12 13 13 13 12 12 12 13 13 14 15 16 18 19 20 21 22 23 24 24 25 25 26 26 26 26 27 27 28 28 28 29 29 29 30 30
7 7 6 6 6 5 5 5 5 5 5 5 5 4 4 4 4 4 4 4 3 3 4 4 4 4 4 4 4 5 5 5 6 6 6 6 7 7 8 8 8 9 9 10 11 11 12 12 13 13 13 14 14 14 14 14 14 14 15 16 17 18 19 20 21 22 23 24 24 25 26 26 26 26 26 26 27 27 28 28 28 28 29 29 30
10 9 9 8 8 7 7 7 6 7 6 6 6 6 6 6 6 6 6 6 6 6 5 6 6 5 5 5 6 6 6 6 7 7 8 8 8 9 9 9 10 10 10 11 12 13 13 14 14 14 14 15 15 14 15 15 15 15 16 16 17 18 19 20 21 21 22 23 24 24 24 24 25 25 26 26 26 26 27 27 28 28 28 28 29
12 11 11 10 10 10 10 9 9 9 9 8 8 8 8 8 8 8 8 8 8 8 8 8 8 7 7 8 8 8 8 8 8 8 8 9 9 10 11 11 11 12 12 13 14 15 15 15 15 16 15 15 16 16 16 16 16 16 17 17 17 17 18 18 19 20 21 22 23 23 23 24 24 24 25 25 25 25 25 26 26 27 27 27 28
13 13 12 12 12 11 12 12 11 11 11 11 11 10 10 11 11 11 11 10 10 10 10 10 10 9 9 9 10 10 9 9 10 10 10 10 10 11 11 12 13 13 14 14 15 16 17 17 17 17 17 17 17 18 18 18 18 18 18 18 18 18 18 18 19 19 20 21 22 23 23 24 24 24 24 25 25 25 25 24 25 25 26 26 27
14 14 14 14 13 13 13 14 14 13 13 13 13 12 13 13 13 13 13 12 12 12 12 12 12 11 11 11 11 11 11 11 11 11 12 12 12 12 13 13 13 14 15 16 16 17 18 18 18 18 18 19 19 19 19 19 19 19 19 19 19 19 19 19 20 20 20 21 22 22 22 23 23 24 24 24 25 25 25 25 25 25 25 25 26
15 15 16 16 15 15 16 16 16 15 15 15 15 15 15 15 15 15 15 14 14 14 14 14 13 13 13 13 13 13 13 13 13 13 13 14 14 14 14 15 15 16 17 17 17 18 19 19 20 20 20 20 20 20 20 20 21 20 20 21 21 21 21 21 21 21 21 21 22 22 22 22 22 23 23 24 24 24 25 25 25 24 24 25 25
17 16 16 17 17 17 18 18 18 18 18 18 17 17 17 17 17 17 17 16 15 15 15 15 15 15 15 15 15 15 15 15 15 15 15 16 16 16 16 17 17 18 18 18 19 19 20 20 21 21 21 22 22 21 21 21 21 22 22 22 22 22 22 22 22 22 22 22 22 22 22 22 22 23 23 23 24 24 25 25 24 24 24 24 25
19 18 18 18 19 19 20 21 21 21 21 20 20 19 19 18 18 18 18 18 17 17 16 16 16 16 16 16 16 16 17 17 17 17 17 17 18 18 18 19 19 19 19 20 20 20 21 21 22 22 22 22 23 23 23 22 22 23 23 23 23 23 23 23 23 23 23 23 23 23 23 24 24 24 24 24 24 25 25 26 26 26 25 25 25
22 22 21 21 21 21 22 23 24 24 23 23 22 21 20 20 20 19 19 19 19 19 18 18 18 18 18 18 18 18 18 18 18 18 18 19 19 20 20 20 20 21 21 21 21 22 22 22 23 23 24 24 24 24 25 25 24 24 24 24 25 25 25 25 25 25 25 25 25 26 26 25 25 25 25 25 25 26 26 27 27 28 27 27 27
25 24 24 24 24 24 25 25 25 25 24 24 23 22 22 21 21 21 21 21 20 21 21 20 20 19 19 19 19 19 19 19 19 19 20 20 21 21 21 22 22 22 22 22 23 23 23 24 24 24 25 25 25 26 26 26 26 26 26 26 26 26 27 27 26 27 27 27 27 26 26 26 26 26 26 26 26 26 26 27 28 28 29 29 29
24 24 25 25 25 25 25 23 23 23 24 24 23 23 23 23 24 23 23 23 23 22 22 22 21 21 21 21 21 21 21 21 21 21 22 22 22 23 23 23 23 23 23 23 23 24 24 25 25 25 25 26 26 27 27 27 28 28 29 29 28 28 29 29 28 28 28 28 28 27 27 27 27 27 27 27 27 27 27 27 27 28 29 30 30
24 25 25 26 25 25 24 23 22 23 24 25 25 26 26 26 26 26 26 25 25 24 23 23 23 23 23 23 23 23 23 23 23 23 24 24 24 24 25 25 25 25 24 25 25 25 25 26 26 26 26 27 27 27 28 28 29 29 30 30 31 31 31 30 30 30 30 30 30 30 30 30 30 30 30 30 29 29 29 29 29 29 29 30 30
25 25 25 25 25 25 25 24 25 25 26 26 27 28 28 28 28 28 28 27 26 26 26 25 25 26 26 26 26 26 26 26 26 26 26 26 26 26 27 27 27 26 26 26 27 27 27 27 27 27 28 28 28 29 29 30 30 30 31 31 32 32 32 32 32 32 32 32 33 34 33 33 33 33 33 32 32 32 32 32 31 31 31 31 30
24 24 24 25 25 26 26 26 27 27 27 28 28 29 29 30 30 30 29 29 29 28 29 29 29 29 29 28 28 28 28 28 28 28 28 28 28 28 28 28 28 28 28 28 29 29 29 29 29 30 30 30 30 30 30 31 31 32 32 32 32 33 33 33 34 34 34 35 36 36 36 36 36 36 36 35 35 35 35 34 34 34 33 33 32
26 26 26 26 26 27 27 28 28 28 29 29 30 30 30 31 31 31 31 32 32 31 31 31 30 30 30 30 30 30 30 30 30 30 30 30 30 30 30 30 30 30 31 31 31 31 32 32 32 32 32 32 32 32 31 32 33 33 33 33 33 34 34 34 35 36 36 36 37 38 38 37 37 38 38 37 37 37 37 37 36 36 35 34 33
28 28 28 29 29 29 29 30 30 30 30 30 30 31 32 32 31 32 32 32 32 32 31 31 31 30 30 31 31 32 32 32 32 32 32 32 32 32 32 32 32 32 33 33 34 34 34 34 34 35 34 34 34 34 33 33 34 34 34 35 35 35 36 36 37 37 37 37 37 39 40 38 37 38 39 38 38 38 38 38 37 37 37 36 35
28 29 30 30 31 31 31 31 30 30 30 30 30 30 31 31 31 31 32 32 32 31 31 31 30 31 31 31 32 33 33 33 33 33 33 33 33 34 34 34 34 34 35 35 35 35 36 36 36 36 36 36 36 36 35 35 36 36 36 36 36 37 38 38 38 38 37 37 37 38 40 38 37 38 39 38 37 38 38 38 38 37 37 37 37
28 29 29 30 30 31 31 30 30 29 29 29 29 29 29 29 29 30 31 31 32 32 31 31 31 32 33 33 34 34 34 34 34 34 34 34 35 35 35 35 35 36 36 37 37 37 37 37 37 37 37 37 37 38 38 38 38 38 39 39 39 39 39 39 39 39 38 37 37 38 39 39 38 38 38 37 37 38 38 38 38 37 37 37 37
28 29 30 30 30 30 30 30 30 30 30 29 29 29 29 28 28 29 30 31 31 31 32 33 33 34 34 35 35 35 35 35 34 34 34 34 35 35 35 36 36 36 37 37 37 37 38 38 38 39 39 39 39 40 40 41 41 41 41 41 41 40 40 40 40 40 39 39 38 38 40 40 38 38 38 38 37 37 37 37 37 37 37 37 37
29 29 29 30 30 30 30 30 30 30 30 29 29 28 28 28 28 29 30 30 30 31 32 32 33 34 34 35 35 34 34 33 33 33 33 34 34 35 35 36 36 37 37 38 38 38 39 40 40 41 41 42 42 43 43 43 44 43 43 43 43 42 43 42 42 41 41 40 39 39 39 39 38 37 37 37 37 37 36 35 36 36 37 37 37
29 29 29 30 30 30 30 30 30 30 30 29 29 29 29 29 29 29 29 30 30 31 31 32 33 33 34 33 33 32 32 32 32 33 33 34 35 35 36 36 37 38 38 39 39 40 40 41 41 42 42 42 43 43 43 43 43 43 42 42 42 43 43 43 43 43 42 41 40 39 40 40 39 38 37 37 36 36 36 35 35 35 36 36 36
Wind_Direction
241 240 242 243 241 238 240 243 240 239 241 240 236 234 232 234 236 236 236 236 237 237 234 233 232 231 232 233 230 230 232 230 227 228 229 231 230 230 230 230 231 231 231 230 228 228 229 229 230 232 231 230 230 230 231 232 233 235 237 237 237 238 241 244 247 249 248 250 255 260 267 277 290 309 328 344 354 3 11 17 22 25 28 31 31
240 241 243 242 239 239 242 241 238 238 239 240 237 235 237 238 239 241 242 241 242 240 236 236 236 234 233 234 233 231 230 230 230 229 229 230 231 231 231 231 232 232 232 231 230 229 230 230 231 232 232 231 230 230 231 233 235 236 237 237 238 239 241 243 245 248 250 250 253 258 263 269 276 285 296 309 320 331 342 352 2 10 15 21 23
238 240 239 237 237 239 242 240 239 239 240 240 238 239 241 239 238 240 242 241 243 242 238 240 241 237 235 235 235 234 232 232 232 231 231 231 231 234 233 232 232 233 233 233 232 231 232 232 232 232 233 232 232 232 232 233 235 237 238 238 239 241 242 244 245 248 250 252 254 257 261 265 269 275 281 288 295 303 312 323 332 343 354 2 8
238 242 240 235 237 240 241 241 239 238 241 242 241 241 241 241 240 238 239 239 239 239 236 240 242 239 238 238 238 237 235 235 235 233 232 232 232 234 234 233 233 233 233 234 233 233 233 234 233 233 234 233 233 233 233 234 235 237 239 239 240 241 243 245 247 249 250 253 255 258 260 264 267 270 273 277 281 286 292 300 307 315 324 335 346
239 242 240 235 236 240 242 242 240 239 242 244 243 242 241 244 243 239 239 239 237 236 235 237 239 239 239 239 238 238 237 236 237 235 233 233 233 234 234 234 235 234 234 234 234 235 235 235 234 234 234 234 234 235 235 236 236 237 239 241 241 242 244 246 248 250 252 253 255 258 260 263 266 269 271 272 274 276 280 284 290 296 302 309 319
239 238 237 235 235 239 243 244 243 243 245 245 244 243 243 244 243 242 242 242 238 236 236 235 237 241 241 240 239 238 236 236 237 238 236 235 234 234 234 236 238 237 236 236 236 237 237 237 236 235 234 234 235 235 236 236 237 238 240 242 242 243 244 246 247 250 252 253 255 258 261 263 266 268 270 271 272 272 274 275 279 283 288 293 299
239 238 237 237 238 241 243 245 246 246 247 247 246 243 243 244 244 242 241 242 238 235 237 237 239 244 244 243 243 240 238 237 237 238 238 236 235 235 235 237 239 239 239 239 239 238 238 238 237 236 235 235 236 235 236 236 237 239 241 242 244 245 246 246 247 249 251 253 255 257 260 262 265 267 269 270 271 271 271 271 272 275 279 283 286
242 242 241 242 244 245 245 247 248 249 251 250 247 243 242 246 246 241 237 239 238 236 238 240 242 247 248 246 245 243 243 242 239 237 237 236 235 236 238 239 240 240 241 241 241 241 240 239 239 238 237 236 236 236 236 236 238 239 240 242 243 245 247 247 248 249 251 253 255 256 258 260 262 265 267 269 270 270 269 269 268 270 272 275 278
243 241 239 241 245 247 250 251 250 250 252 250 248 244 242 244 245 240 237 237 237 237 239 242 245 249 251 249 247 245 245 244 241 239 238 238 237 238 240 242 243 244 242 242 243 243 242 240 240 239 239 238 237 237 237 237 238 239 240 241 242 244 246 247 248 249 250 252 254 256 257 259 260 262 264 266 268 268 268 267 266 266 268 270 272
241 239 238 242 247 249 252 253 251 252 252 248 247 245 242 242 241 239 239 238 237 239 240 242 246 250 251 249 247 247 246 245 244 242 241 241 242 241 243 244 246 247 246 244 243 243 243 242 241 241 241 240 239 238 237 238 238 238 240 241 242 243 245 247 247 248 249 251 253 254 256 258 259 261 263 264 265 266 265 264 264 264 265 266 268
247 247 248 250 251 251 252 252 253 254 251 247 245 244 243 242 239 238 239 239 238 239 241 242 245 248 250 250 250 249 248 248 246 245 244 244 246 246 246 246 248 249 248 247 246 244 243 243 242 242 242 241 240 239 238 238 238 239 241 242 243 243 245 247 248 248 248 249 251 253 255 256 258 260 262 263 263 263 263 262 262 262 263 263 264
252 254 254 254 254 253 253 252 253 253 251 247 246 245 244 242 239 237 237 237 239 239 239 242 245 250 254 255 255 253 251 251 250 249 249 248 248 249 249 249 250 250 249 247 248 247 244 243 242 242 243 242 241 240 239 238 239 241 242 242 243 244 245 246 247 248 248 249 250 251 253 255 257 259 261 262 262 262 261 260 261 261 261 261 262
254 255 256 256 255 254 254 254 254 253 251 249 247 246 244 242 240 238 236 236 237 239 241 244 249 256 259 260 259 257 254 254 255 255 254 253 252 252 251 250 250 252 250 247 247 248 247 245 243 243 244 243 241 241 240 240 241 242 243 243 244 244 245 246 248 249 249 249 250 251 252 254 257 258 260 262 262 261 260 260 260 260 260 260 260
255 256 256 258 257 255 254 255 254 253 252 249 247 246 243 241 239 237 237 237 238 241 244 248 254 258 260 262 261 259 258 258 260 260 258 256 256 256 255 252 252 254 254 252 250 249 248 247 245 244 243 243 242 242 242 242 242 243 243 243 244 245 246 247 248 249 249 250 251 252 252 254 256 258 259 260 260 261 261 260 260 260 259 259 259
255 255 256 259 259 256 254 255 255 255 253 250 247 244 241 241 240 238 238 239 240 244 247 251 255 256 257 260 261 260 263 265 265 264 262 259 257 256 257 256 255 256 256 256 253 249 247 246 245 244 243 243 243 243 242 243 243 243 243 243 244 245 246 247 248 249 250 250 251 252 253 254 255 256 257 257 258 260 261 261 260 259 258 258 258
251 253 255 257 257 256 254 255 256 256 255 252 248 244 242 242 241 239 239 240 242 246 249 252 253 253 254 257 260 263 265 268 270 269 266 263 260 256 257 258 258 258 257 255 254 250 247 246 246 246 244 243 244 244 244 244 243 243 243 243 244 246 246 247 248 248 249 250 251 252 253 253 253 254 254 255 256 258 259 260 259 258 258 258 258
248 251 254 254 253 253 253 252 254 254 254 254 251 248 247 246 244 243 242 242 244 246 249 252 251 251 252 255 261 264 265 268 271 271 268 266 265 263 260 259 259 260 257 252 251 251 250 248 247 247 246 244 244 244 244 245 244 244 244 245 245 246 247 247 248 248 249 249 250 251 252 252 252 253 254 254 255 256 257 258 258 258 258 258 258
249 246 247 250 251 251 250 251 253 253 251 251 251 251 250 249 249 248 246 245 246 248 250 251 251 252 253 256 259 261 263 268 270 270 270 268 268 268 266 264 261 261 259 253 250 250 251 250 249 248 248 247 246 244 244 244 244 244 245 246 247 246 247 247 248 248 249 250 250 251 251 252 252 253 253 254 255 255 256 257 257 257 257 258 258
249 245 243 245 249 249 248 249 249 249 247 246 247 248 247 246 248 248 247 247 247 248 250 251 252 253 254 256 258 261 263 266 268 270 273 272 271 269 269 269 264 261 261 257 253 253 252 252 251 250 249 248 248 247 245 244 244 245 246 247 247 246 246 246 247 248 250 251 251 252 252 253 253 253 254 254 255 255 255 255 256 257 257 258 258
247 246 244 243 247 248 245 242 240 239 237 239 244 246 244 242 243 244 245 246 246 246 248 250 253 254 255 256 258 261 263 265 266 268 271 271 271 269 270 272 266 261 262 261 259 259 256 254 252 251 249 248 248 249 248 246 246 246 246 246 247 247 247 247 247 249 250 251 252 253 254 254 254 255 256 256 256 256 255 255 255 257 257 257 257
247 246 242 240 242 241 240 240 238 236 235 239 242 241 241 240 240 242 242 243 243 243 246 248 252 254 255 255 256 258 261 263 263 265 268 268 268 267 268 270 266 264 264 265 266 267 263 257 253 251 249 248 247 248 248 248 248 247 246 246 247 248 248 248 249 249 250 251 252 253 255 256 256 257 257 257 258 257 256 256 256 256 257 257 257
246 245 240 234 234 233 238 245 243 237 236 240 240 237 237 238 240 243 243 243 244 245 246 247 251 254 255 254 254 256 258 260 261 263 265 264 263 264 266 268 267 265 266 267 269 271 271 265 259 255 251 248 248 248 248 247 248 248 248 247 246 247 248 249 251 251 250 251 252 253 255 257 258 258 258 258 258 257 257 257 256 256 256 256 257
240 240 237 230 231 233 238 243 238 232 230 232 234 234 236 238 242 246 244 244 245 246 249 250 253 257 258 257 256 256 257 258 260 261 262 263 264 265 268 270 269 266 267 268 269 270 272 271 266 261 256 251 250 250 249 248 248 248 249 248 247 246 247 249 251 251 251 251 252 253 255 257 258 258 259 258 258 257 256 256 256 256 256 256 256
233 231 230 225 226 229 234 236 227 220 217 218 223 226 229 234 239 243 241 242 243 244 248 250 252 256 259 259 259 259 259 259 261 262 263 264 265 267 270 271 270 270 272 271 269 266 269 272 273 268 261 257 254 252 250 249 248 248 249 249 247 247 248 249 250 251 252 253 253 254 255 257 258 258 258 258 258 257 256 256 255 255 256 255 255
220 214 210 210 215 218 219 226 226 215 203 201 204 205 213 222 223 227 230 233 240 244 248 250 252 255 260 263 265 266 265 264 264 265 265 266 267 269 271 272 272 274 276 273 269 266 266 270 276 277 271 267 264 258 254 250 248 248 248 248 248 248 249 250 251 252 254 255 256 257 257 258 259 259 259 260 259 259 258 257 257 256 256 256 255
207 201 197 197 201 204 206 212 211 200 193 192 189 179 181 196 196 200 215 228 244 253 256 259 259 262 266 269 271 272 272 271 270 271 271 271 272 273 274 274 274 274 274 273 271 268 266 268 274 282 284 283 277 267 259 253 248 247 247 247 249 250 250 251 252 255 256 257 259 260 259 258 259 260 261 262 261 260 260 259 258 257 257 257 256
201 195 189 188 191 191 191 193 186 179 182 187 184 174 168 179 184 180 196 238 276 280 277 274 268 272 276 276 277 279 279 280 279 277 276 275 275 276 278 278 276 275 273 272 271 267 268 271 274 280 285 287 288 281 269 259 251 248 248 249 250 251 252 253 254 255 256 257 259 260 259 259 259 260 261 262 262 261 260 260 259 257 256 256 256
209 202 191 191 197 194 190 188 184 181 182 179 179 185 189 202 215 217 313 335 331 323 319 305 278 278 286 285 284 287 288 290 291 289 285 283 282 281 283 282 280 278 277 276 273 268 270 276 275 277 283 285 287 286 278 269 261 254 252 252 252 252 252 253 253 253 255 257 259 259 260 260 261 261 262 262 262 262 261 260 259 257 256 256 256
227 221 212 210 209 207 204 200 196 194 193 193 194 206 227 239 245 262 286 300 309 317 324 324 308 298 300 297 290 291 294 295 296 296 293 290 289 288 287 285 282 281 280 280 278 271 274 281 279 278 284 286 286 284 278 275 272 265 260 257 255 253 252 253 254 255 256 259 260 260 261 261 262 263 263 263 262 262 261 260 259 258 257 256 256
235 233 230 231 232 231 228 224 221 217 216 221 221 224 239 248 253 261 268 273 282 296 304 307 310 310 309 310 306 304 305 301 297 296 295 291 290 290 289 286 284 282 279 280 281 277 279 284 282 282 284 285 285 284 280 277 275 271 268 264 259 256 256 256 257 258 258 260 260 260 261 262 263 263 264 263 262 262 262 261 259 259 258 257 256
240 242 241 243 246 246 244 242 239 236 236 240 241 241 247 253 257 260 264 267 271 278 283 286 292 297 297 300 302 303 304 303 300 297 294 293 293 295 295 292 288 284 280 279 278 278 282 284 283 283 284 284 284 283 281 280 279 276 273 270 266 263 260 259 259 260 261 262 262 261 261 262 264 264 264 264 263 263 262 262 260 260 259 258 257
243 246 248 249 249 250 251 249 248 248 248 249 250 252 255 258 261 262 264 266 267 271 274 278 283 285 287 288 288 292 296 298 298 296 295 294 293 294 295 294 292 288 285 283 279 279 283 284 283 284 285 284 284 283 282 282 281 279 276 274 272 270 267 264 264 263 263 263 263 263 263 263 264 264 264 264 264 263 263 262 261 261 260 258 258
245 246 248 251 253 253 253 251 252 253 253 253 255 256 258 260 262 264 266 266 266 269 271 275 278 280 283 285 286 289 293 295 295 295 295 295 293 292 291 290 290 290 288 285 282 282 283 284 283 284 284 284 283 283 283 283 282 281 278 276 275 272 270 268 267 266 266 265 265 265 265 265 265 265 265 264 263 263 262 262 261 260 260 259 258
247 249 249 250 252 254 254 255 256 257 258 258 258 259 260 261 261 263 265 265 267 268 269 271 274 278 280 283 286 287 289 293 296 295 295 295 293 292 291 289 287 287 286 284 283 283 284 286 285 284 284 283 283 282 283 282 281 280 278 277 276 274 272 270 269 268 268 267 268 268 268 268 268 267 266 265 263 262 261 261 261 260 260 259 258
248 250 250 251 252 253 254 254 255 258 259 259 260 262 262 262 262 262 264 265 267 269 269 270 271 275 277 279 282 284 285 288 291 292 292 293 292 292 293 292 290 287 285 284 284 284 284 285 286 285 285 284 282 281 281 280 280 279 277 276 276 275 274 273 272 271 271 270 270 271 271 271 270 269 267 265 263 261 261 261 261 261 261 260 259
251 251 250 250 254 256 256 254 254 256 258 258 260 262 264 264 264 263 263 265 266 267 268 269 269 271 273 274 277 279 281 283 285 288 290 291 291 292 293 294 294 292 288 285 284 283 283 284 285 284 284 283 282 280 280 279 278 278 276 276 275 275 275 274 274 273 273 272 272 272 272 272 271 271 269 267 264 262 260 260 261 262 261 261 260
255 254 251 250 254 257 257 257 257 258 259 259 261 262 264 265 265 264 264 264 265 266 266 267 268 270 272 273 274 276 278 280 282 285 288 290 291 291 291 292 293 293 290 288 286 285 284 285 285 285 284 283 282 281 280 279 279 277 276 275 274 273 273 273 272 271 271 270 270 269 270 271 271 270 269 267 265 263 261 261 261 261 262 262 261
255 255 254 254 256 258 259 259 259 259 260 260 261 262 262 263 263 263 264 263 264 264 265 266 267 269 271 272 273 275 276 279 280 282 286 289 291 291 291 291 291 291 291 289 288 287 286 286 286 286 286 285 283 282 280 280 279 278 277 276 274 273 272 272 271 270 270 270 269 269 269 270 271 271 270 269 267 265 264 262 262 262 262 262 263
255 256 257 258 260 262 265 265 260 258 258 259 260 261 262 262 262 262 262 262 263 263 264 266 267 268 270 272 273 274 276 277 279 281 285 288 289 289 290 290 290 290 290 289 288 287 287 287 287 286 286 286 284 282 280 280 279 278 278 277 276 274 273 272 270 270 269 269 268 269 269 270 270 270 271 270 268 266 265 264 263 262 262 263 263
257 258 260 261 263 266 269 268 262 256 255 256 258 260 260 261 261 262 263 262 262 263 264 265 266 268 270 272 274 275 276 278 279 281 284 286 287 288 289 289 289 289 289 289 288 287 287 287 287 287 286 286 285 283 282 280 279 278 278 278 277 276 274 273 271 270 269 268 268 268 269 269 269 269 270 270 269 268 266 265 263 262 262 263 262
258 260 261 263 265 267 268 266 261 256 254 256 258 258 259 260 261 263 264 263 263 263 263 264 265 267 269 271 273 274 276 278 279 280 282 284 285 287 288 288 288 288 289 288 288 287 286 287 287 286 286 286 285 285 283 282 280 279 278 277 277 276 275 274 272 271 270 270 269 268 268 269 269 268 269 269 269 270 269 267 265 264 263 263 262
260 261 262 262 264 265 264 262 260 259 258 259 260 259 260 262 264 264 264 264 263 263 262 263 265 266 268 269 271 272 274 277 278 278 279 282 284 285 286 287 287 286 287 288 288 287 287 287 286 286 286 285 285 285 284 283 281 280 279 278 277 276 275 274 272 271 270 270 270 269 269 269 269 269 268 268 269 269 269 268 268 267 266 264 262
260 259 260 261 262 262 262 262 262 262 263 263 262 262 262 263 264 264 263 263 263 263 263 263 265 266 267 269 270 271 273 275 276 277 278 280 282 283 284 285 284 284 285 286 288 288 288 287 287 287 286 285 285 285 284 283 282 281 280 279 278 276 275 274 272 272 272 272 271 271 270 269 270 269 268 267 268 269 269 268 269 268 267 265 263
259 259 259 260 261 262 263 264 264 265 265 265 264 264 264 264 264 264 264 263 263 264 264 264 265 266 268 270 272 273 274 275 276 277 278 280 281 281 282 283 282 283 284 286 287 287 287 287 287 287 286 286 285 284 283 282 282 281 280 279 278 277 275 274 273 273 274 274 273 271 270 270 270 269 268 267 267 268 268 268 268 268 267 265 264
261 260 260 260 261 262 263 264 266 267 267 268 268 267 266 266 265 265 265 264 264 264 264 265 266 266 268 270 272 273 274 275 275 276 277 279 281 281 282 282 281 281 283 285 286 286 286 286 286 286 286 286 285 284 283 282 281 280 280 279 278 277 276 275 274 274 275 275 274 272 271 270 270 270 268 268 268 268 268 268 267 266 266 265 264
262 261 261 261 262 264 265 266 267 269 269 270 271 270 269 268 267 266 265 264 264 264 264 265 265 266 267 269 271 273 274 275 276 276 277 279 280 281 281 281 280 281 282 283 285 285 285 285 285 284 285 285 284 284 283 282 280 280 279 278 277 277 276 276 275 275 275 275 275 274 272 271 271 270 269 268 268 268 268 268 267 265 264 263 262
262 262 262 263 264 265 267 268 269 270 270 271 271 270 270 269 268 266 264 263 262 262 263 264 265 266 267 270 272 273 274 275 276 277 278 279 279 280 280 280 280 280 281 282 283 283 283 283 283 283 283 283 283 283 283 282 281 280 279 278 277 277 277 276 275 275 275 274 274 273 272 272 272 270 269 268 268 267 267 267 266 265 263 262 261
263 264 264 264 265 266 267 268 269 269 270 271 270 270 269 268 268 267 265 263 263 263 263 264 266 267 268 270 272 273 274 275 276 277 278 279 278 279 279 279 279 280 280 281 282 282 282 282 282 282 282 282 282 282 282 282 281 280 279 278 277 277 277 276 275 274 274 273 273 272 272 272 272 270 269 269 268 267 266 266 265 265 264 262 261
266 266 266 266 266 266 266 267 268 269 270 270 270 269 269 268 268 268 267 265 265 265 265 266 267 268 270 271 272 273 275 276 277 279 280 280 279 279 279 279 280 280 280 281 281 282 282 282 282 282 282 281 281 281 281 281 280 280 279 278 278 277 276 275 274 274 273 273 272 272 272 272 271 270 269 268 268 267 266 265 265 264 263 262 261
268 268 267 267 267 267 266 267 267 268 270 270 269 268 268 268 268 268 268 268 268 269 269 269 269 270 271 273 273 274 275 276 278 279 279 279 279 279 280 280 280 280 281 282 282 282 283 283 283 282 282 282 281 281 280 280 280 279 278 277 277 276 275 274 274 274 273 272 272 272 271 270 270 270 269 269 268 266 266 265 264 264 262 261 260
268 267 267 267 267 267 267 267 267 268 269 270 269 268 268 268 269 269 270 270 270 271 271 271 271 271 272 274 275 275 275 276 277 278 278 279 279 280 280 281 281 282 282 282 283 283 283 283 283 283 283 283 282 282 281 280 280 279 277 276 276 275 274 273 273 273 272 271 271 271 270 270 269 269 269 269 267 266 265 265 264 264 262 260 259